"Timestamp","TZ","WindDir_Mean (deg)","WindSpd_Mean (km/h)","WindSpd_Min (km/h)","WindSpd_Max (km/h)","Temp_Mean (deg)","RH_Mean (%)","MSLP_Mean (hPa)","Rain_Acc (mm)","Rain_Intensity (mm/h)","Hail_Acc (hits/cm2)","Hail_Intensity (hits/cm2hr)","Solar_Mean (W/m2)"
2020/02/13 00:00:00.007,n,46,9,7.2,10.8,22.2,88,1007.92,0,0.6,0,0,0.029602
2020/02/13 00:01:00.000,n,67,5.04,3.96,6.12,22.1,88.1,1007.82,0.02,1.5,0,0,0.027008
2020/02/13 00:02:00.004,n,70,7.2,5.76,8.64,22.2,88.2,1007.82,0.03,0.1,0,0,0.026093
2020/02/13 00:03:00.000,n,28,12.6,10.8,14.04,22.1,88,1007.82,0.04,0.3,0,0,0.027847
2020/02/13 00:04:00.000,n,55,12.96,11.52,15.48,22.1,88,1007.72,0.04,0.4,0,0,0.030441
2020/02/13 00:05:00.000,n,52,6.12,5.04,7.56,22.1,88,1007.72,0.05,0.4,0,0,0.025215
2020/02/13 00:06:00.011,n,65,8.64,6.84,9.72,22.1,88,1007.62,0.06,0.5,0,0,0.025215
2020/02/13 00:07:00.008,n,67,11.16,10.08,13.68,22.1,87.9,1007.62,0.07,0.4,0,0,0.029602
2020/02/13 00:08:00.006,n,22,10.08,6.84,12.96,22.1,87.8,1007.62,0.09,1.3,0,0,0.025215
2020/02/13 00:09:00.005,n,68,15.84,12.24,18.359998,22,87.6,1007.52,0.12,1.7,0,0,0.027847
2020/02/13 00:10:00.000,n,85,9,7.92,10.08,22,87.4,1007.52,0.13,0.5,0,0,0.027847
2020/02/13 00:11:00.000,n,80,5.04,3.6,6.12,22,87.7,1007.52,0.14,1,0,0,0.027847
2020/02/13 00:12:00.000,n,85,5.76,5.04,6.48,22,87.7,1007.52,0.18,1.9,0,0,0.027008
2020/02/13 00:13:00.000,n,43,6.84,5.76,7.92,22,87.6,1007.42,0.2,1.5,0,0,0.030441
2020/02/13 00:14:00.000,n,45,7.92,7.2,8.28,22,87.6,1007.42,0.21,0.3,0,0,0.024376
2020/02/13 00:15:00.008,n,70,7.92,6.84,8.64,21.9,87.5,1007.42,0.21,0.1,0,0,0.027008
2020/02/13 00:16:00.005,n,62,6.48,5.4,6.84,21.9,87.4,1007.42,0.21,0.2,0,0,0.028725
2020/02/13 00:17:00.005,n,100,9.36,8.64,10.08,21.9,87.5,1007.32,0.22,0.1,0,0,0.026093
2020/02/13 00:18:00.003,n,44,7.56,6.12,7.92,21.9,87.4,1007.32,0.22,0.1,0,0,0.030441
2020/02/13 00:19:00.001,n,44,4.32,4.32,4.68,21.9,87.4,1007.32,0.22,0.1,0,0,0.027008
2020/02/13 00:20:00.000,n,53,6.12,2.88,8.64,21.9,87.4,1007.32,0.22,0,0,0,0.024376
2020/02/13 00:21:00.001,n,51,5.04,4.68,5.4,21.8,87.4,1007.32,0.23,0.4,0,0,0.025215
2020/02/13 00:22:00.000,n,123,8.64,7.56,9.72,21.8,87.1,1007.32,0.25,0.9,0,0,0.026093
2020/02/13 00:23:00.000,n,49,10.440002,9,11.52,21.8,87.1,1007.32,0.46,11.3,0,0,0.024376
2020/02/13 00:24:00.004,n,62,12.6,9.36,15.84,21.8,86.9,1007.22,0.57,7.2,0,0,0.020866
2020/02/13 00:25:00.002,n,39,5.76,3.6,7.92,21.8,87.1,1007.22,0.62,3.5,0,0,0.027847
2020/02/13 00:26:00.000,n,27,6.12,5.76,7.2,21.8,87.3,1007.32,0.67,2.8,0,0,0.027847
2020/02/13 00:27:00.005,n,49,3.24,2.88,3.6,21.8,87.2,1007.32,0.79,7.1,0,0,0.028725
2020/02/13 00:28:00.000,n,62,6.84,6.48,7.2,21.8,87.2,1007.32,0.94,9.2,0,0,0.026093
2020/02/13 00:29:00.001,n,47,3.24,2.88,3.6,21.8,87.2,1007.32,1.07,8,0,0,0.024376
2020/02/13 00:30:00.000,n,53,7.56,6.48,7.92,21.8,87.1,1007.32,1.13,3.8,0,0,0.022621
2020/02/13 00:31:00.000,n,47,3.96,1.44,5.4,21.8,87.1,1007.32,1.16,1.4,0,0,0.020866
2020/02/13 00:32:00.006,n,19,9,6.84,11.16,21.8,87.1,1007.32,1.19,2.1,0,0,0.026093
2020/02/13 00:33:00.000,n,10,5.76,4.68,6.48,21.8,87,1007.32,1.32,7.8,0,0,0.025215
2020/02/13 00:34:00.001,n,7,7.2,7.2,7.56,21.8,87.1,1007.32,1.67,19.8,0,0,0.032196
2020/02/13 00:35:00.000,n,51,3.96,3.24,5.04,21.8,87.3,1007.32,2.18,31.5,0,0,0.035706
2020/02/13 00:36:00.014,n,23,5.04,3.96,5.76,21.8,87.2,1007.32,2.59,27.2,0,0,0.035706
2020/02/13 00:37:00.000,n,0,9.36,9,9.72,21.8,86.7,1007.22,2.92,17,0,0,0.035706
2020/02/13 00:38:00.000,n,15,6.12,4.32,7.56,21.7,87.1,1007.22,3.09,15.6,0,0,0.036583
2020/02/13 00:39:00.000,n,32,7.2,3.24,9,21.7,87.3,1007.22,3.28,7.8,0,0,0.032196
2020/02/13 00:40:00.000,n,11,5.4,4.68,6.12,21.8,87.3,1007.22,3.51,16.9,0,0,0.033112
2020/02/13 00:41:00.000,n,354,8.28,7.92,8.28,21.8,87.3,1007.22,3.63,7.2,0,0,0.036583
2020/02/13 00:42:00.006,n,344,12.24,11.52,12.96,21.8,87.2,1007.22,3.77,8,0,0,0.033112
2020/02/13 00:43:00.012,n,356,10.08,8.64,12.6,21.7,87.1,1007.22,3.9,7.8,0,0,0.033989
2020/02/13 00:44:00.002,n,354,10.08,10.08,10.440002,21.7,87.1,1007.12,4.02,7,0,0,0.037422
2020/02/13 00:45:00.008,n,355,10.8,10.08,12.6,21.7,87,1007.12,4.13,7.2,0,0,0.033112
2020/02/13 00:46:00.000,n,24,9.36,8.28,10.440002,21.7,87,1007.22,4.3,10.1,0,0,0.035706
2020/02/13 00:47:00.000,n,354,8.28,5.04,11.52,21.7,86.9,1007.12,4.5,11.5,0,0,0.033989
2020/02/13 00:48:00.000,n,340,12.6,10.440002,14.76,21.7,87.3,1007.12,5.02,31,0,0,0.033112
2020/02/13 00:49:00.000,n,354,9.36,9,10.08,21.7,86.9,1007.12,5.48,28,0,0,0.031357
2020/02/13 00:50:00.006,n,353,10.8,9.36,11.88,21.7,86.9,1007.12,5.91,26.1,0,0,0.028763
2020/02/13 00:51:00.005,n,355,12.96,11.16,14.04,21.7,87.1,1007.02,6.47,33.3,0,0,0.030479
2020/02/13 00:52:00.002,n,358,9.36,8.64,10.8,21.8,87.1,1007.02,6.91,27.1,0,0,0.021782
2020/02/13 00:53:00.000,n,343,12.96,11.88,15.12,21.8,87,1006.92,7.18,16,0,0,0.029602
2020/02/13 00:54:00.015,n,304,2.88,2.16,3.6,21.8,87.1,1006.92,7.32,8.5,0,0,0.026131
2020/02/13 00:55:00.000,n,340,7.56,6.48,8.64,21.8,87.3,1006.92,7.46,8.6,0,0,0.028763
2020/02/13 00:56:00.000,n,304,5.04,2.88,7.56,21.9,87.4,1006.92,7.55,4.9,0,0,0.022659
2020/02/13 00:57:00.001,n,3,9,8.28,10.08,21.8,86.2,1006.82,7.68,8.8,0,0,0.027885
2020/02/13 00:58:00.007,n,352,8.28,7.56,9,21.7,86.1,1006.82,7.72,3.1,0,0,0.02697
2020/02/13 00:59:00.000,n,355,10.08,8.28,11.52,21.6,85.1,1006.82,7.75,2.1,0,0,0.026131
2020/02/13 01:00:00.003,n,0,9.72,8.64,11.52,21.6,84.5,1006.82,7.78,1.5,0,0,0.031319
2020/02/13 01:01:00.004,n,355,9.72,8.64,10.440002,21.6,84.5,1006.82,7.81,1.9,0,0,0.030479
2020/02/13 01:02:00.010,n,354,8.28,7.92,8.64,21.7,83.7,1006.82,7.86,2.5,0,0,0.029602
2020/02/13 01:03:00.015,n,357,9,9,9.36,21.7,83,1006.82,7.91,3.1,0,0,0.028725
2020/02/13 01:04:00.000,n,357,8.28,7.92,8.64,21.8,83,1006.82,7.95,2.7,0,0,0.028725
2020/02/13 01:05:00.000,n,7,7.56,7.2,7.92,21.9,83.3,1006.82,8.020001,3.8,0,0,0.028725
2020/02/13 01:06:00.001,n,357,4.32,3.96,4.68,22,83.6,1006.82,8.060001,2.8,0,0,0.029602
2020/02/13 01:07:00.007,n,348,3.24,2.16,3.6,22.1,84.2,1006.82,8.11,2.5,0,0,0.026131
2020/02/13 01:08:00.000,n,274,4.32,3.6,5.4,22.2,84.7,1006.82,8.140001,2.2,0,0,0.024376
2020/02/13 01:09:00.004,n,283,5.04,4.32,5.76,22.2,84.9,1006.82,8.2,3,0,0,0.027847
2020/02/13 01:10:00.010,n,250,0.72,0.36,1.08,22.2,85,1006.82,8.24,3,0,0,0.028725
2020/02/13 01:11:00.000,n,3,2.52,1.44,3.24,22.2,85,1006.82,8.270001,2,0,0,0.025253
2020/02/13 01:12:00.005,n,216,0.72,0.36,1.44,22.2,85.3,1006.82,8.310001,2.1,0,0,0.025253
2020/02/13 01:13:00.000,n,10,3.96,2.52,4.68,22.2,85.3,1006.82,8.350001,2,0,0,0.023499
2020/02/13 01:14:00.001,n,189,2.88,2.52,3.24,22.2,85.3,1006.72,8.39,2.9,0,0,0.027847
2020/02/13 01:15:00.000,n,339,1.44,0.36,2.88,22.1,85.4,1006.72,8.45,3.1,0,0,0.027847
2020/02/13 01:16:00.000,n,335,3.6,2.16,3.96,22.1,85.7,1006.72,8.5,3.2,0,0,0.030479
2020/02/13 01:17:00.004,n,112,1.08,0.36,1.44,22.1,85.7,1006.72,8.6,5.1,0,0,0.024376
2020/02/13 01:18:00.000,n,247,4.32,3.24,4.68,22,85.7,1006.72,8.68,5.2,0,0,0.023499
2020/02/13 01:19:00.000,n,262,3.24,2.88,3.96,22,85.8,1006.62,8.75,4.2,0,0,0.027847
2020/02/13 01:20:00.007,n,250,4.32,3.96,4.68,22,85.8,1006.62,8.84,5.3,0,0,0.02697
2020/02/13 01:21:00.013,n,248,3.6,3.6,3.96,22,85.8,1006.62,8.95,6.3,0,0,0.02697
2020/02/13 01:22:00.000,n,253,5.76,5.04,6.48,21.9,85.8,1006.62,9.02,5.1,0,0,0.024376
2020/02/13 01:23:00.000,n,258,5.04,4.68,5.4,21.9,85.9,1006.62,9.1,4.2,0,0,0.025253
2020/02/13 01:24:00.000,n,239,2.16,1.8,2.88,21.9,86,1006.52,9.16,4.2,0,0,0.025253
2020/02/13 01:25:00.005,n,206,3.24,2.52,3.96,21.9,86.1,1006.52,9.23,3.8,0,0,0.027847
2020/02/13 01:26:00.000,n,223,3.6,3.24,4.32,21.9,86.3,1006.52,9.28,2.9,0,0,0.028725
2020/02/13 01:27:00.001,n,203,3.24,3.24,3.6,21.9,86.4,1006.42,9.29,1.2,0,0,0.030479
2020/02/13 01:28:00.008,n,68,0.72,0.36,1.08,21.9,86.5,1006.42,9.35,2.4,0,0,0.030479
2020/02/13 01:29:00.000,n,319,2.52,2.16,2.88,21.9,86.4,1006.42,9.36,1.6,0,0,0.028725
2020/02/13 01:30:00.005,n,232,1.08,0.36,2.16,21.9,86.5,1006.42,9.4,2.1,0,0,0.026131
2020/02/13 01:31:00.000,n,355,1.08,1.08,1.44,21.9,86.5,1006.42,9.43,1.9,0,0,0.030479
2020/02/13 01:32:00.001,n,327,0.72,0.36,1.08,21.9,86.7,1006.42,9.46,1.8,0,0,0.022621
2020/02/13 01:33:00.000,n,166,0.36,0.36,0.36,21.9,86.9,1006.42,9.47,0.6,0,0,0.027847
2020/02/13 01:34:00.000,n,216,0.72,0.72,1.08,21.9,86.8,1006.42,9.48,0.7,0,0,0.028725
2020/02/13 01:35:00.005,n,221,0.72,0,1.44,21.9,86.7,1006.42,9.5,0.8,0,0,0.027847
2020/02/13 01:36:00.000,n,297,0.36,0,0.72,21.9,86.7,1006.42,9.51,0.5,0,0,0.032196
2020/02/13 01:37:00.001,n,157,2.52,2.52,2.88,21.9,86.8,1006.42,9.52,0.6,0,0,0.031319
2020/02/13 01:38:00.007,n,147,2.52,1.8,2.88,21.9,86.8,1006.42,9.54,1.1,0,0,0.032196
2020/02/13 01:39:00.014,n,136,2.88,2.88,2.88,21.9,86.7,1006.42,9.54,0.3,0,0,0.033913
2020/02/13 01:40:00.000,n,134,2.52,2.52,2.88,21.8,86.6,1006.42,9.55,0.4,0,0,0.033913
2020/02/13 01:41:00.000,n,126,1.44,1.44,1.8,21.8,86.8,1006.32,9.56,0.7,0,0,0.034828
2020/02/13 01:42:00.000,n,153,1.44,1.08,1.44,21.8,86.9,1006.32,9.57,0.7,0,0,0.033913
2020/02/13 01:43:00.006,n,111,0.72,0.36,0.72,21.8,87.1,1006.32,9.58,0.4,0,0,0.035706
2020/02/13 01:44:00.000,n,253,2.52,1.8,3.24,21.8,87.1,1006.32,9.59,0.3,0,0,0.036545
2020/02/13 01:45:00.002,n,242,2.16,2.16,2.16,21.8,87.1,1006.32,9.59,0.3,0,0,0.033073
2020/02/13 01:46:00.010,n,246,3.24,2.88,3.24,21.8,87.1,1006.32,9.59,0,0,0,0.033073
2020/02/13 01:47:00.000,n,225,2.88,2.88,3.24,21.8,86.9,1006.32,9.6,0.2,0,0,0.033913
2020/02/13 01:48:00.005,n,231,2.88,2.52,2.88,21.8,86.8,1006.32,9.6,0.2,0,0,0.033073
2020/02/13 01:49:00.000,n,238,3.24,2.88,3.24,21.8,86.9,1006.32,9.61,0.3,0,0,0.033073
2020/02/13 01:50:00.001,n,249,3.96,3.6,4.32,21.8,87.1,1006.32,9.61,0,0,0,0.033073
2020/02/13 01:51:00.000,n,249,3.6,3.24,3.6,21.8,87.1,1006.32,9.61,0.3,0,0,0.035706
2020/02/13 01:52:00.000,n,246,4.32,3.96,4.68,21.8,87.1,1006.32,9.61,0,0,0,0.032196
2020/02/13 01:53:00.003,n,220,3.24,3.24,3.24,21.8,87.1,1006.32,9.61,0,0,0,0.036545
2020/02/13 01:54:00.010,n,230,3.24,2.88,3.6,21.8,87.1,1006.42,9.61,0,0,0,0.0383
2020/02/13 01:55:00.000,n,246,3.24,2.88,3.24,21.8,87.2,1006.32,9.61,0,0,0,0.035706
2020/02/13 01:56:00.005,n,237,3.24,2.52,3.6,21.8,87.2,1006.32,9.61,0,0,0,0.036545
2020/02/13 01:57:00.012,n,228,2.52,2.16,2.52,21.8,87.3,1006.32,9.61,0,0,0,0.033913
2020/02/13 01:58:00.001,n,183,3.96,3.6,4.68,21.8,87.4,1006.32,9.61,0,0,0,0.033913
2020/02/13 01:59:00.000,n,201,4.32,3.6,4.68,21.8,87.4,1006.32,9.61,0,0,0,0.037422
2020/02/13 02:00:00.000,n,176,3.6,2.52,4.32,21.8,87.4,1006.32,9.61,0,0,0,0.034828
2020/02/13 02:01:00.002,n,188,7.92,7.2,8.28,21.8,87.4,1006.32,9.61,0,0,0,0.033913
2020/02/13 02:02:00.007,n,169,2.88,2.16,3.6,21.8,87.5,1006.32,9.61,0,0,0,0.033913
2020/02/13 02:03:00.000,n,175,10.8,9.72,11.52,21.8,87.5,1006.32,9.61,0,0,0,0.034828
2020/02/13 02:04:00.003,n,182,4.68,3.24,5.04,21.8,87.5,1006.32,9.61,0,0,0,0.037422
2020/02/13 02:05:00.008,n,180,7.2,6.48,7.56,21.8,87.5,1006.22,9.61,0,0,0,0.036545
2020/02/13 02:06:00.015,n,179,6.12,5.4,7.2,21.8,87.6,1006.22,9.61,0,0,0,0.035706
2020/02/13 02:07:00.000,n,165,4.32,3.96,4.32,21.8,87.7,1006.22,9.61,0,0,0,0.037422
2020/02/13 02:08:00.000,n,182,2.16,2.16,2.52,21.8,87.7,1006.22,9.61,0,0,0,0.034828
2020/02/13 02:09:00.000,n,220,3.96,3.6,3.96,21.8,87.7,1006.22,9.61,0,0,0,0.035706
2020/02/13 02:10:00.005,n,165,1.8,0.72,2.88,21.8,87.7,1006.22,9.61,0,0,0,0.035706
2020/02/13 02:11:00.000,n,208,3.24,3.24,3.6,21.8,87.8,1006.22,9.61,0,0,0,0.035706
2020/02/13 02:12:00.000,n,242,1.08,1.08,1.44,21.8,87.7,1006.22,9.61,0,0,0,0.035706
2020/02/13 02:13:00.005,n,172,5.4,4.68,5.76,21.8,87.8,1006.22,9.61,0,0,0,0.031319
2020/02/13 02:14:00.011,n,180,5.04,4.68,5.4,21.8,87.6,1006.22,9.61,0,0,0,0.040054
2020/02/13 02:15:00.001,n,192,3.96,3.6,4.32,21.8,87.7,1006.12,9.61,0,0,0,0.0383
2020/02/13 02:16:00.000,n,216,3.6,3.24,3.96,21.8,87.7,1006.12,9.61,0,0,0,0.034828
2020/02/13 02:17:00.000,n,210,3.6,3.24,3.96,21.8,87.8,1006.12,9.61,0,0,0,0.033073
2020/02/13 02:18:00.003,n,241,3.96,3.6,3.96,21.8,87.9,1006.12,9.61,0,0,0,0.035706
2020/02/13 02:19:00.000,n,231,4.32,3.6,4.68,21.8,87.9,1006.12,9.61,0,0,0,0.032196
2020/02/13 02:20:00.000,n,246,3.96,3.96,3.96,21.8,87.9,1006.12,9.61,0,0,0,0.032196
2020/02/13 02:21:00.003,n,257,4.32,3.96,4.68,21.8,87.9,1006.12,9.61,0,0,0,0.036545
2020/02/13 02:22:00.009,n,266,5.04,5.04,5.4,21.8,87.9,1006.12,9.61,0,0,0,0.033073
2020/02/13 02:23:00.014,n,265,3.24,2.88,3.6,21.8,87.9,1006.12,9.61,0,0,0,0.030479
2020/02/13 02:24:00.004,n,265,3.6,3.24,3.6,21.8,87.9,1006.22,9.61,0,0,0,0.031319
2020/02/13 02:25:00.000,n,199,2.52,2.16,2.88,21.8,88,1006.22,9.61,0,0,0,0.032196
2020/02/13 02:26:00.000,n,233,2.88,2.16,3.96,21.8,88,1006.22,9.61,0,0,0,0.032196
2020/02/13 02:27:00.004,n,254,1.8,0.72,2.16,21.8,88,1006.22,9.61,0,0,0,0.033913
2020/02/13 02:28:00.000,n,210,2.52,2.16,2.52,21.8,88,1006.22,9.61,0,0,0,0.034828
2020/02/13 02:29:00.000,n,234,2.16,1.8,2.52,21.8,87.9,1006.22,9.62,0,0,0,0.033073
2020/02/13 02:30:00.006,n,235,2.88,2.52,2.88,21.8,87.9,1006.22,9.62,0.1,0,0,0.037422
2020/02/13 02:31:00.012,n,231,2.88,2.88,2.88,21.8,87.9,1006.22,9.62,0.4,0,0,0.033913
2020/02/13 02:32:00.002,n,225,2.52,2.16,2.52,21.8,87.9,1006.22,9.67,2.5,0,0,0.0383
2020/02/13 02:33:00.008,n,239,2.16,2.16,2.16,21.8,88,1006.22,9.74,3.7,0,0,0.034828
2020/02/13 02:34:00.000,n,251,1.8,1.8,2.16,21.8,88,1006.22,9.78,2.5,0,0,0.034828
2020/02/13 02:35:00.000,n,197,2.16,1.8,2.52,21.8,88.1,1006.22,9.8,1.5,0,0,0.034828
2020/02/13 02:36:00.000,n,176,3.6,3.24,3.96,21.8,88.2,1006.22,9.82,1.4,0,0,0.033073
2020/02/13 02:37:00.000,n,171,3.96,3.96,3.96,21.8,88.2,1006.22,9.85,1.5,0,0,0.037422
2020/02/13 02:38:00.007,n,160,3.6,3.6,3.96,21.8,88.1,1006.22,9.88,1.7,0,0,0.033913
2020/02/13 02:39:00.000,n,138,4.68,3.96,5.4,21.8,88.1,1006.22,9.9,1.4,0,0,0.033913
2020/02/13 02:40:00.003,n,150,4.32,4.32,4.32,21.8,88.1,1006.22,9.93,1.4,0,0,0.037422
2020/02/13 02:41:00.009,n,176,3.96,3.6,3.96,21.8,87.9,1006.22,9.95,1.6,0,0,0.033913
2020/02/13 02:42:00.015,n,156,5.04,4.68,5.04,21.7,87.8,1006.32,9.99,2.5,0,0,0.035706
2020/02/13 02:43:00.000,n,105,2.88,2.88,3.24,21.7,88.1,1006.32,10.06,4.2,0,0,0.033073
2020/02/13 02:44:00.004,n,99,4.32,3.6,4.68,21.8,88.2,1006.32,10.11,2.7,0,0,0.036545
2020/02/13 02:45:00.002,n,91,2.16,1.44,2.88,21.8,88.4,1006.32,10.19,4.6,0,0,0.031319
2020/02/13 02:46:00.000,n,99,1.08,0.72,2.16,21.8,88.3,1006.32,10.35,9.6,0,0,0.033073
2020/02/13 02:47:00.000,n,99,2.52,2.52,2.88,21.8,88.3,1006.32,10.4,3.5,0,0,0.036545
2020/02/13 02:48:00.000,n,141,2.52,1.8,2.88,21.8,88.2,1006.32,10.42,1.8,0,0,0.033913
2020/02/13 02:49:00.011,n,146,2.52,1.44,2.88,21.8,88.1,1006.22,10.43,0.7,0,0,0.037422
2020/02/13 02:50:00.009,n,243,0.72,0.36,0.72,21.8,88.3,1006.22,10.43,0.3,0,0,0.035706
2020/02/13 02:51:00.007,n,176,2.88,2.52,3.24,21.8,88.1,1006.22,10.43,0.1,0,0,0.037422
2020/02/13 02:52:00.000,n,114,2.88,2.52,3.24,21.8,88.1,1006.22,10.43,0,0,0,0.034828
2020/02/13 02:53:00.002,n,199,4.32,3.6,5.04,21.8,88.2,1006.22,10.45,0.7,0,0,0.034828
2020/02/13 02:54:00.000,n,162,2.88,2.52,3.24,21.8,88.2,1006.22,10.45,0.2,0,0,0.033913
2020/02/13 02:55:00.000,n,129,2.88,2.52,3.24,21.8,88.3,1006.22,10.45,0,0,0,0.037422
2020/02/13 02:56:00.000,n,142,0.72,0.36,1.08,21.8,88.4,1006.32,10.49,2.1,0,0,0.036545
2020/02/13 02:57:00.000,n,88,1.08,0.36,1.44,21.8,88.5,1006.32,10.49,0,0,0,0.0383
2020/02/13 02:58:00.009,n,91,2.88,2.16,3.24,21.8,88.5,1006.32,10.5,0.3,0,0,0.040054
2020/02/13 02:59:00.008,n,87,2.88,2.16,3.24,21.8,88.4,1006.32,10.51,0.5,0,0,0.036545
2020/02/13 03:00:00.006,n,121,2.16,1.08,3.24,21.8,88.5,1006.32,10.52,0.6,0,0,0.039139
2020/02/13 03:01:00.000,n,197,3.6,3.6,3.6,21.8,88.4,1006.32,10.54,1,0,0,0.037422
2020/02/13 03:02:00.001,n,179,3.6,3.6,4.32,21.8,88.3,1006.32,10.56,0.9,0,0,0.035706
2020/02/13 03:03:00.000,n,179,4.68,4.32,4.68,21.8,88.3,1006.32,10.57,1.1,0,0,0.032196
2020/02/13 03:04:00.000,n,171,3.96,3.6,4.32,21.8,88.2,1006.32,10.61,2.3,0,0,0.036545
2020/02/13 03:05:00.000,n,210,2.16,1.44,2.88,21.8,88.3,1006.32,10.69,4.3,0,0,0.033913
2020/02/13 03:06:00.010,n,208,5.04,4.68,5.76,21.8,88.3,1006.22,10.75,3.8,0,0,0.037422
2020/02/13 03:07:00.008,n,240,3.24,3.24,3.6,21.8,88.4,1006.32,10.8,2.9,0,0,0.039139
2020/02/13 03:08:00.006,n,237,2.16,2.16,2.16,21.8,88.4,1006.32,10.86,3.5,0,0,0.034828
2020/02/13 03:09:00.005,n,242,1.8,1.8,2.16,21.8,88.4,1006.32,10.9,2.5,0,0,0.035706
2020/02/13 03:10:00.000,n,194,2.16,2.16,2.52,21.8,88.4,1006.32,10.95,3.3,0,0,0.037422
2020/02/13 03:11:00.000,n,191,2.16,2.16,2.52,21.8,88.4,1006.32,11.02,3.6,0,0,0.037422
2020/02/13 03:12:00.000,n,237,1.44,1.08,1.8,21.8,88.5,1006.32,11.07,3.6,0,0,0.037422
2020/02/13 03:13:00.000,n,110,1.8,1.44,1.8,21.8,88.3,1006.32,11.11,2.5,0,0,0.037422
2020/02/13 03:14:00.000,n,43,1.08,0.72,1.8,21.8,88.3,1006.32,11.18,3.6,0,0,0.0383
2020/02/13 03:15:00.010,n,136,2.52,2.52,2.52,21.7,88.3,1006.42,11.26,4.1,0,0,0.034828
2020/02/13 03:16:00.008,n,170,1.8,1.8,2.16,21.7,88.3,1006.42,11.32,4.4,0,0,0.037422
2020/02/13 03:17:00.007,n,154,2.16,1.8,2.88,21.7,88.4,1006.42,11.4,4.6,0,0,0.039139
2020/02/13 03:18:00.005,n,160,2.16,2.16,2.52,21.8,88.4,1006.32,11.49,5.1,0,0,0.039139
2020/02/13 03:19:00.000,n,167,2.52,2.16,2.52,21.8,88.3,1006.32,11.55,3.6,0,0,0.0383
2020/02/13 03:20:00.002,n,204,2.52,2.52,2.52,21.7,88.3,1006.32,11.59,2.6,0,0,0.037422
2020/02/13 03:21:00.001,n,165,1.44,1.08,1.44,21.7,88.3,1006.32,11.63,1.8,0,0,0.035706
2020/02/13 03:22:00.000,n,25,1.44,1.08,1.8,21.7,88.3,1006.32,11.71,5.4,0,0,0.040054
2020/02/13 03:23:00.000,n,98,0.72,0,1.44,21.8,88.6,1006.32,11.82,6,0,0,0.039139
2020/02/13 03:24:00.011,n,70,1.44,0.72,1.8,21.8,88.6,1006.32,11.95,7.7,0,0,0.034828
2020/02/13 03:25:00.010,n,106,2.16,2.16,2.16,21.8,88.5,1006.32,12.03,5.6,0,0,0.039139
2020/02/13 03:26:00.009,n,63,1.44,1.08,1.44,21.8,88.4,1006.32,12.22,10.4,0,0,0.037422
2020/02/13 03:27:00.015,n,51,2.88,2.52,2.88,21.8,88.3,1006.32,12.46,15.5,0,0,0.037422
2020/02/13 03:28:00.000,n,64,2.88,2.88,2.88,21.8,88.3,1006.32,12.6,7.9,0,0,0.036545
2020/02/13 03:29:00.003,n,74,2.52,2.16,2.52,21.8,88.4,1006.32,12.73,8.2,0,0,0.040894
2020/02/13 03:30:00.002,n,62,1.44,1.08,1.44,21.8,88.5,1006.22,12.82,5.3,0,0,0.041771
2020/02/13 03:31:00.000,n,0,1.8,1.8,2.52,21.8,88.5,1006.22,12.89,3.9,0,0,0.039139
2020/02/13 03:32:00.000,n,40,1.8,1.44,1.8,21.8,88.4,1006.22,12.99,7,0,0,0.039139
2020/02/13 03:33:00.000,n,18,3.24,2.88,3.24,21.8,88.5,1006.22,13.04,3.1,0,0,0.0383
2020/02/13 03:34:00.010,n,28,2.52,2.52,2.52,21.8,88.5,1006.22,13.09,2.7,0,0,0.044365
2020/02/13 03:35:00.008,n,74,2.16,2.16,2.52,21.8,88.4,1006.22,13.13,2.8,0,0,0.036545
2020/02/13 03:36:00.006,n,53,1.44,1.44,1.8,21.8,88.3,1006.22,13.17,2.6,0,0,0.035706
2020/02/13 03:37:00.000,n,30,1.8,1.44,2.52,21.8,88.5,1006.12,13.21,2.1,0,0,0.040054
2020/02/13 03:38:00.002,n,97,1.08,0.72,1.44,21.8,88.4,1006.12,13.23,1.4,0,0,0.036545
2020/02/13 03:39:00.000,n,14,1.44,0.72,1.44,21.8,88.5,1006.12,13.25,0.9,0,0,0.041771
2020/02/13 03:40:00.000,n,90,1.08,0.72,1.44,21.8,88.5,1006.12,13.27,1.6,0,0,0.043488
2020/02/13 03:41:00.000,n,85,0.72,0.36,0.72,21.8,88.7,1006.02,13.31,2.3,0,0,0.039139
2020/02/13 03:42:00.000,n,351,0.72,0,1.8,21.9,88.7,1006.02,13.32,1,0,0,0.042648
2020/02/13 03:43:00.009,n,9,1.8,1.8,1.8,21.9,88.5,1006.02,13.37,2.4,0,0,0.041771
2020/02/13 03:44:00.008,n,67,1.08,1.08,1.08,21.9,88.5,1006.02,13.41,2.3,0,0,0.042648
2020/02/13 03:45:00.006,n,59,0.36,0.36,0.72,21.9,88.5,1006.02,13.42,0.9,0,0,0.041771
2020/02/13 03:46:00.000,n,17,1.44,0.72,1.8,21.9,88.4,1005.92,13.46,2,0,0,0.040054
2020/02/13 03:47:00.002,n,14,0.72,0.72,1.44,21.9,88.4,1005.92,13.48,1.3,0,0,0.037422
2020/02/13 03:48:00.000,n,214,0.72,0.36,1.8,21.9,88.5,1005.92,13.51,2.2,0,0,0.040054
2020/02/13 03:49:00.000,n,48,0.36,0.36,0.72,21.9,88.5,1005.92,13.54,1.4,0,0,0.042648
2020/02/13 03:50:00.000,n,268,0.72,0.36,1.08,21.9,88.5,1005.92,13.55,0.6,0,0,0.040894
2020/02/13 03:51:00.000,n,30,1.08,0.72,1.44,21.9,88.6,1005.82,13.57,1.5,0,0,0.041771
2020/02/13 03:52:00.010,n,5,2.16,1.8,2.52,21.9,88.6,1005.82,13.62,2.5,0,0,0.039139
2020/02/13 03:53:00.008,n,243,1.8,1.8,2.16,21.9,88.5,1005.82,13.69,4.8,0,0,0.040894
2020/02/13 03:54:00.015,n,318,0.72,0.36,1.08,21.9,88.6,1005.82,13.71,1.4,0,0,0.041771
2020/02/13 03:55:00.000,n,63,1.44,1.08,1.8,21.9,88.6,1005.82,13.76,2.9,0,0,0.042648
2020/02/13 03:56:00.000,n,158,0.72,0.36,1.44,21.9,88.7,1005.82,13.82,3.2,0,0,0.0383
2020/02/13 03:57:00.001,n,38,2.52,2.16,2.52,21.9,88.6,1005.72,13.86,2.8,0,0,0.041771
2020/02/13 03:58:00.000,n,62,0.72,0,1.44,21.9,88.6,1005.72,13.88,0.8,0,0,0.042648
2020/02/13 03:59:00.000,n,352,1.08,1.08,1.44,21.9,88.7,1005.72,13.92,2.8,0,0,0.042648
2020/02/13 04:00:00.005,n,13,1.44,1.08,1.44,21.9,88.6,1005.62,13.97,2.8,0,0,0.044365
2020/02/13 04:01:00.012,n,37,1.08,1.08,1.44,21.9,88.5,1005.62,14.01,2.7,0,0,0.040894
2020/02/13 04:02:00.001,n,308,0.36,0.36,0.72,21.9,88.5,1005.62,14.06,2.3,0,0,0.044365
2020/02/13 04:03:00.008,n,225,1.08,0.36,1.44,21.9,88.5,1005.62,14.09,1.6,0,0,0.040054
2020/02/13 04:04:00.000,n,194,1.08,0.72,1.08,21.9,88.5,1005.62,14.13,2.6,0,0,0.040894
2020/02/13 04:05:00.000,n,128,2.16,1.8,2.52,21.9,88.5,1005.62,14.16,2.2,0,0,0.043488
2020/02/13 04:06:00.000,n,164,2.88,2.52,2.88,21.9,88.5,1005.62,14.2,2.3,0,0,0.044365
2020/02/13 04:07:00.000,n,132,3.6,3.24,4.32,21.9,88.5,1005.62,14.22,1.1,0,0,0.04528
2020/02/13 04:08:00.008,n,141,3.96,3.24,4.32,21.9,88.6,1005.62,14.24,1.2,0,0,0.042648
2020/02/13 04:09:00.000,n,160,3.6,3.24,3.96,21.9,88.6,1005.62,14.26,0.9,0,0,0.04528
2020/02/13 04:10:00.003,n,123,5.4,5.04,5.76,21.9,88.6,1005.62,14.27,0.6,0,0,0.04528
2020/02/13 04:11:00.010,n,131,4.68,4.32,5.04,21.9,88.6,1005.62,14.28,0.7,0,0,0.052223
2020/02/13 04:12:00.016,n,134,4.32,3.96,4.68,21.9,88.6,1005.62,14.29,0.7,0,0,0.040894
2020/02/13 04:13:00.000,n,150,5.4,5.04,5.4,21.9,88.6,1005.62,14.3,0.6,0,0,0.04612
2020/02/13 04:14:00.000,n,141,4.68,4.68,5.04,21.9,88.6,1005.62,14.32,0.8,0,0,0.043488
2020/02/13 04:15:00.003,n,119,3.96,3.6,4.32,21.9,88.6,1005.62,14.32,0.5,0,0,0.042648
2020/02/13 04:16:00.000,n,168,1.08,0.72,1.8,21.9,88.6,1005.62,14.35,1.2,0,0,0.041771
2020/02/13 04:17:00.000,n,128,4.68,3.96,5.04,21.9,88.6,1005.62,14.37,1.7,0,0,0.044365
2020/02/13 04:18:00.006,n,128,3.6,2.88,3.96,21.9,88.6,1005.62,14.39,0.8,0,0,0.04612
2020/02/13 04:19:00.012,n,144,3.96,3.6,4.32,21.9,88.6,1005.62,14.4,0.8,0,0,0.043488
2020/02/13 04:20:00.001,n,149,3.6,3.6,3.96,21.9,88.7,1005.52,14.41,0.8,0,0,0.042648
2020/02/13 04:21:00.007,n,154,3.6,3.24,4.68,21.9,88.7,1005.52,14.42,0.4,0,0,0.046997
2020/02/13 04:22:00.000,n,191,3.24,2.88,3.6,21.9,88.7,1005.52,14.43,0.6,0,0,0.043488
2020/02/13 04:23:00.000,n,216,2.16,2.16,2.88,21.9,88.7,1005.42,14.47,1.9,0,0,0.040894
2020/02/13 04:24:00.000,n,141,3.24,2.88,3.6,22,88.8,1005.42,14.49,1.2,0,0,0.043488
2020/02/13 04:25:00.000,n,167,3.96,3.6,3.96,22,88.7,1005.42,14.5,0.7,0,0,0.042648
2020/02/13 04:26:00.005,n,168,3.6,3.24,3.96,22,88.7,1005.42,14.51,0.6,0,0,0.043488
2020/02/13 04:27:00.000,n,165,2.16,2.16,3.24,21.9,88.7,1005.42,14.54,1.9,0,0,0.041771
2020/02/13 04:28:00.002,n,215,2.52,2.16,2.88,21.9,88.8,1005.42,14.6,3.4,0,0,0.04528
2020/02/13 04:29:00.008,n,185,3.24,3.24,3.6,22,88.8,1005.42,14.65,3.1,0,0,0.040054
2020/02/13 04:30:00.014,n,171,2.88,2.52,2.88,21.9,88.8,1005.42,14.7,2.8,0,0,0.040054
2020/02/13 04:31:00.000,n,209,3.96,3.24,4.32,22,88.8,1005.42,14.74,2.5,0,0,0.042648
2020/02/13 04:32:00.000,n,190,2.16,2.16,2.52,21.9,88.8,1005.42,14.78,2.3,0,0,0.04528
2020/02/13 04:33:00.000,n,207,3.24,2.88,3.24,21.9,88.8,1005.42,14.81,1.8,0,0,0.0383
2020/02/13 04:34:00.007,n,158,2.88,2.52,2.88,22,88.8,1005.42,14.84,2.1,0,0,0.040894
2020/02/13 04:35:00.000,n,149,3.6,3.6,4.32,22,88.9,1005.42,14.88,2.1,0,0,0.042648
2020/02/13 04:36:00.002,n,145,6.48,6.12,6.84,22,88.8,1005.52,14.89,1,0,0,0.040054
2020/02/13 04:37:00.008,n,145,6.12,5.76,6.48,22,88.8,1005.52,14.9,0.4,0,0,0.043488
2020/02/13 04:38:00.000,n,149,8.64,8.28,9,22,88.8,1005.62,14.9,0.1,0,0,0.04528